Aeroporto :
LOGIN :

Iscrizione | Disclaimer

   EN    FR    IT 

 










Sommario :    VFR   VFR Marginale   IFR   IFR Intensivo   IFR Molto Intensivo
Visibilità : 
Base nubi : 
>= 8 km
>= 3000ft
5 / 8 km
1000 / 3000 ft
1500m / 5 km
500 / 1000 ft
800 / 1500m
200 / 500 ft
< 800m
< 200 ft
Simboli :   Temporali  Nebbia  Neve Forte  Precipitazioni Forti  Vento > 20 kt
SIGMETs :   Varie  Temporali  Ghiacco  Turbolenza  Onda orograficha  Ceneri Vulcaniche






- Altitudine del aeroporto : 39 ft


ETNH - Hohn AB

ULTIMO METAR :
  • 051420Z 09008KT 9999 VCSH FEW045CB SCT055 BKN120 22/11 Q1009 BLU BLU

METARs OBSOLETI :
  • 051320Z 09010KT 9999 FEW045 BKN085 23/10 Q1009 BLU BLU
  • 051220Z 12007KT 9999 FEW044 SCT069 BKN085 22/11 Q1009 BLU BLU

TAF TAF ETNH
Valido dal 05 a 11 ore il 05 a 23 ore UTC


051000Z 0511/0523 09005KT 9999 NSW SCT050 BKN080
PROB30 0511/0516 11010KT 5000 -SHRA SCT025 BKN050TCU
TEMPO 0516/0520 12010KT 3000 SHRA SCT020 BKN030CB BY ETGL



MetMap, La meteo Aeronautica in un colpo d'occhio ! - Copyright ORBIFLY Dicembre 2007 - Disclaimer

ORBIFLY MET'MAP TEAM :

Programmazione e sviluppo : Alexandra Zaïnal
Concezione : Baudouin d'Aumeries
Aiuto per la programmazione : Marc-Olivier Méhu
Supporto tecnico e logistico : Manuel Goepfert
Aiuto per la traduzione : Arnaldo La Scala

Contatto : metmap@orbifly.com




FONTI E CREDITI :

   NOAA